This is the latest recevied weather packets stored in our database for station/object KD4UFD. If no packets are shown the sender has not sent any weather packets the latest 10 day(s).
| Time | Temp. | Humidity | Pressure | Rain* | Wind** | Luminosity | Snow |
|---|---|---|---|---|---|---|---|
| 1778073572 | 17.22° C | 98% | 1011.6 hPa | 1.78 mm | - | 42 W/m² | - |
| 1778073269 | 17.22° C | 98% | 1011.4 hPa | 0 mm | - | 43 W/m² | - |
| 1778072966 | 17.22° C | 98% | 1011.8 hPa | 1.27 mm | - | 51 W/m² | - |
| 1778072662 | 17.22° C | 97% | 1011.7 hPa | 4.32 mm | - | 44 W/m² | - |
| 1778072360 | 17.22° C | 97% | 1012 hPa | 7.87 mm | - | 26 W/m² | - |
| 1778072058 | 17.22° C | 97% | 1011.8 hPa | 8.89 mm | - | 13 W/m² | - |
| 1778071756 | 17.22° C | 97% | 1012 hPa | 7.87 mm | - | 11 W/m² | - |
| 1778071453 | 17.22° C | 96% | 1011.9 hPa | 3.56 mm | - | 10 W/m² | - |
| 1778071151 | 17.22° C | 96% | 1011.9 hPa | 3.05 mm | - | 16 W/m² | - |
| 1778070849 | 17.22° C | 96% | 1011.2 hPa | 1.27 mm | - | 15 W/m² | - |
| 1778070546 | 17.22° C | 96% | 1011.8 hPa | 1.78 mm | - | 19 W/m² | - |
| 1778070243 | 17.22° C | 95% | 1011.7 hPa | 3.05 mm | - | 22 W/m² | - |
| 1778069941 | 17.78° C | 95% | 1011.5 hPa | 3.05 mm | - | 22 W/m² | - |
| 1778069638 | 17.78° C | 94% | 1011.5 hPa | 3.05 mm | - | 20 W/m² | - |
| 1778069334 | 17.78° C | 93% | 1011.6 hPa | 3.05 mm | - | 14 W/m² | - |
| 1778069032 | 17.78° C | 93% | 1011.5 hPa | 3.05 mm | - | 18 W/m² | - |
| 1778068729 | 17.78° C | 92% | 1011.5 hPa | 1.27 mm | - | 11 W/m² | - |
| 1778068428 | 18.33° C | 91% | 1011.3 hPa | 1.78 mm | - | 11 W/m² | - |
| 1778068125 | 18.33° C | 90% | 1011.1 hPa | 1.78 mm | - | 9 W/m² | - |
| 1778067822 | 18.33° C | 90% | 1011 hPa | 0 mm | - | 12 W/m² | - |
| 1778067521 | 18.33° C | 89% | 1010.8 hPa | 1.27 mm | - | 12 W/m² | - |
| 1778067219 | 18.33° C | 88% | 1011 hPa | 0 mm | - | 12 W/m² | - |
| 1778066915 | 18.33° C | 88% | 1010.7 hPa | 0 mm | - | 11 W/m² | - |
| 1778066612 | 18.89° C | 87% | 1010.8 hPa | 0 mm | - | 11 W/m² | - |
| 1778066309 | 18.89° C | 86% | 1010.6 hPa | 1.78 mm | - | 10 W/m² | - |
* Rain latest hour (hover to see other rain measurements)
** Current wind speed in m/s (hover to see current wind gust speed)